Racecast

Tionna Coleman

Legion of Zoom Track Club (VA) · 7 · Compare head to head

Athlete rating 110.0 2026 TF season
Best race 111.3 TF
Races 32
Seasons 2 2025 — 2026

RankedNation #24963·VA #353·Team #12 ?

Rating scale ?
Speed rating — all races

Track & Field

TF speed rating

2026 TF 106.1

Legion of Zoom Track Club (VA) · Grade 7

Date Meet Event Result Place Rating Difficulty PR/SR Flags
2026-06-20 Legacy Juneteenth Track Showcase 800m 3:11.71 6th · 2nd on team 104.9 -0.027
2026-06-20 Legacy Juneteenth Track Showcase 400m 1:16.48 15th · 6th on team -0.027
2026-06-13 AAU Virginia District Qualifier - South 800m 3:01.79 4th · 3rd on team 110.1 -0.033 ★PR SR
2026-06-13 AAU Virginia District Qualifier - South 1500m 6:38.19 2nd · 2nd on team 103.4 -0.033
2026-05-30 Va Beach Flames Invite 800m 3:02.03 5th · 2nd on team 111.0 -0.023 PR SR
2026-05-30 Va Beach Flames Invite 400m 1:15.52 29th · 5th on team -0.023 ★PR SR
2026-05-24 HR Hurricanes CAT 5 Invite 800m 3:03.08 3rd · 2nd on team 109.0 -0.035 PR R SR RSR
2026-05-24 HR Hurricanes CAT 5 Invite 1500m 6:08.88 2nd · 2nd on team 111.3 -0.035 ★PR ★R SR RSR
2026-05-09 VA "Legends" T & F Youth Invite 400m 1:15.6 37th · 6th on team -0.033 PR SR
2026-05-09 VA "Legends" T & F Youth Invite 800m 3:14.61 10th · 1st on team 102.8 -0.033
2026-05-03 Queen Harrison Track Classic - -Youth Section 800m 3:05.91 4th · 2nd on team 107.6 -0.033 PR R SR RSR
2026-05-03 Queen Harrison Track Classic - -Youth Section 1500m 6:35.87 3rd · 2nd on team 104.0 -0.033 PR SR
2026-04-26 Virginia Pride Spring Kick-Off 1500m 6:52.87 15th · 2nd on team 100.1 -0.029 PR SR RSR
2026-04-26 Virginia Pride Spring Kick-Off 800m 3:15.69 26th · 3rd on team 102.6 -0.029 SR RSR
2026-04-26 Virginia Pride Spring Kick-Off 400m 1:20.13 63rd · 4th on team -0.029 SR

2025 TF 102.7

Legion of Zoom Track Club (VA) · Grade 6

Date Meet Event Result Place Rating Difficulty PR/SR Flags
2025-06-21 LEGACY Juneteenth Track Showcase 800m 3:25.55 8th · 2nd on team 97.8 -0.029
2025-06-21 LEGACY Juneteenth Track Showcase 400m 1:19.16 14th · 2nd on team -0.029
2025-06-14 AAU Virginia District Qualifier (Southern) 400m 1:19.97 16th · 2nd on team -0.041
2025-06-14 AAU Virginia District Qualifier (Southern) 800m 3:10.64 7th · 1st on team 104.1 -0.041
2025-06-14 AAU Virginia District Qualifier (Southern) 200m 33.7 21st · 2nd on team -0.041 ★PR SR
2025-06-07 Darius Dixon Invite 800m 3:16.77 10th · 2nd on team 101.9 -0.032
2025-06-07 Darius Dixon Invite 400m 1:17.34 17th · 2nd on team -0.032 PR SR
2025-05-31 Va Beach Flames Invite 200m 33.93 44th · 3rd on team -0.023
2025-05-31 Va Beach Flames Invite 400m 1:20.21 40th · 2nd on team -0.023
2025-05-04 Queen Harrison Youth Invite 400m 1:18.09 22nd · 3rd on team -0.033 PR SR
2025-05-04 Queen Harrison Youth Invite 800m 3:09.89 11th · 2nd on team 105.4 -0.033 PR R SR RSR
2025-05-04 Queen Harrison Youth Invite 200m 34.97 22nd · 4th on team -0.033
2025-03-07 AAU Indoor National Championships 200m 33.93 67th · 1st on team -0.036 PR SR
2025-03-07 AAU Indoor National Championships 800m 3:10.52 28th · 1st on team 105.2 -0.036 PR R SR RSR
2025-03-07 AAU Indoor National Championships 400m 1:18.57 46th · 1st on team -0.036 PR SR
2025-02-22 BWSP Queens and Kings Championships 800m 3:21.13 6th · 2nd on team 101.5 -0.014 PR R SR RSR
2025-02-22 BWSP Queens and Kings Championships 400m 1:18.7 17th · 4th on team -0.014 PR SR